Content
SEND FEEDBACK

Daily
Averages
Monthly
Summary
Malaysia

KUCHING, MALAYSIA


Home > Asia > Malaysia
Elevation: 89 feet     Latitude: 01 29N     Longitude: 110 20E

WEATHER
 
SELECT A DAY
Number of Records: 270,677;   Date Range: 8/9/96 - 9/22/14
 
SHARE

PRINT THIS DATA

[ ← Previous Day ]
WEATHER ALMANAC - JANUARY 3, 2013
[ Next Day → ]
[ °C ]   °F
Weather ElementAverageHighLow
Temperature79.7 °F91.4 °F (12:30 pm) (3:00 pm)
Dewpoint74.6 °F77 °F (8:30 am) (7:00 pm)
Humidity84.5 %100 % (4:30 am)59 % (12:00 pm)
Barometer29.24 in29.86 in (8:00 am) (7:00 pm)
Wind Speed4.4 mph10.4 mph (5:00 pm)
Weather ElementAverage
Visibility6.2 mi
Wind DirectionSSW (202.3 °)

Weather ElementTotal
Precipitation---
Heating Degree Days19.3 (Base 65)
Averaged from 53 records on January 3, 2013
WEATHER CONDITIONS BREAKOUT
WIND DIRECTION BREAKOUT
WEATHER BY HOUR - JANUARY 3, 2013
[ °C ]   °F
Local TimeTemperatureDewpointHumidityBarometerVisibilityWind DirectionWind SpeedGust SpeedPrecipitationEventsConditions
12:30 AM77.0 °F75.2 °F94 %29.83 in6.2 miSSW (200°)3.5 mphMostly Cloudy
1:00 AM77.0 °F75.2 °F94 %29.83 in6.2 miSouth (170°)3.5 mphMostly Cloudy
1:30 AM77.0 °F75.2 °F94 %29.83 in6.2 miEast (80°)1.2 mphMostly Cloudy
2:00 AM76.0 °F75.0 °F97 %29.84 in9.0 miSouth (170°)1.2 mphPartly Cloudy
2:00 AM77.0 °F75.2 °F94 %29.83 in6.2 miSouth (170°)1.2 mphMostly Cloudy
2:30 AM77.0 °F75.2 °F94 %29.80 in6.2 miENE (70°)1.2 mphRainLight Rain
3:00 AM77.0 °F75.2 °F94 %29.80 in6.2 miENE (70°)2.3 mphRainLight Rain
3:30 AM77.0 °F75.2 °F94 %29.80 in4.3 miSW (220°)2.3 mphRainLight Rain
4:00 AM77.0 °F75.2 °F94 %29.80 in5.0 miSSW (210°)3.5 mphRainLight Rain
4:30 AM75.2 °F75.2 °F100 %29.80 in6.2 miSSW (210°)3.5 mphRainLight Rain
5:00 AM75.2 °F75.2 °F100 %29.80 in4.3 miSSW (210°)3.5 mphRainLight Rain
5:30 AM75.2 °F75.2 °F100 %29.80 in6.2 miSW (220°)1.2 mphMostly Cloudy
6:00 AM75.2 °F75.2 °F100 %29.80 in4.3 miSouth (180°)2.3 mphMostly Cloudy
6:30 AM75.2 °F75.2 °F100 %29.80 in4.3 miSSE (160°)1.2 mphMostly Cloudy
7:00 AM75.2 °F75.2 °F100 %29.83 in3.1 miESE (110°)2.3 mphMostly Cloudy
7:30 AM77.0 °F75.2 °F94 %29.83 in3.7 miESE (110°)3.5 mphMostly Cloudy
8:00 AM77.0 °F76.0 °F94 %29.86 in5.0 miSSE (150°)3.5 mphMist
8:00 AM77.0 °F75.2 °F94 %29.86 in5.0 miSSE (150°)3.5 mphMostly Cloudy
8:30 AM78.8 °F77.0 °F94 %29.86 in6.2 miSouth (180°)4.6 mphMostly Cloudy
9:00 AM80.6 °F77.0 °F89 %29.86 in6.2 miSouth (180°)4.6 mphMostly Cloudy
9:30 AM82.4 °F77.0 °F84 %29.86 in6.2 miSSW (200°)4.6 mphMostly Cloudy
10:30 AM84.2 °F77.0 °F79 %29.83 in6.2 miSSW (200°)3.5 mphMostly Cloudy
11:00 AM87.0 °F77.0 °F66 %29.85 in16.0 miWest (260°)3.5 mphPartly Cloudy
11:00 AM86.0 °F77.0 °F74 %29.83 in6.2 miWest (260°)3.5 mphMostly Cloudy
11:30 AM87.8 °F75.2 °F66 %29.83 in6.2 miNW (310°)2.3 mphMostly Cloudy
12:00 PM89.6 °F73.4 °F59 %29.83 in6.2 miWest (280°)2.3 mphMostly Cloudy
12:30 PM91.4 °F75.2 °F59 %29.80 in6.2 miWNW (300°)3.5 mphMostly Cloudy
1:00 PM91.4 °F75.2 °F59 %29.80 in6.2 miWNW (290°)4.6 mphMostly Cloudy
1:30 PM89.6 °F77.0 °F66 %29.77 in6.2 miNorth (360°)8.1 mphMostly Cloudy
2:00 PM89.0 °F76.0 °F59 %29.77 in9.0 miNNE (20°)3.5 mphMostly Cloudy
2:00 PM89.6 °F77.0 °F66 %29.77 in6.2 miNNE (20°)3.5 mphMostly Cloudy
2:30 PM86.0 °F77.0 °F74 %29.74 in3.1 miNorth (360°)9.2 mphMostly Cloudy
3:00 PM0.0 °F0.0 °FNorth
3:30 PM80.6 °F77.0 °F89 %29.74 in6.2 miNE (40°)8.1 mphMostly Cloudy
4:00 PM84.2 °F77.0 °F79 %29.71 in6.2 miNorth (10°)8.1 mphMostly Cloudy
4:30 PM86.0 °F75.2 °F70 %29.71 in6.2 miNNW (340°)9.2 mphMostly Cloudy
5:00 PM85.0 °F76.0 °F68 %29.74 in12.0 miNNW (340°)10.4 mphPartly Cloudy
5:00 PM86.0 °F75.2 °F70 %29.74 in6.2 miNNW (340°)10.4 mphMostly Cloudy
5:30 PM84.2 °F77.0 °F79 %29.74 in6.2 miNorth (350°)9.2 mphMostly Cloudy
6:00 PM84.2 °F77.0 °F79 %29.74 in6.2 miNorth (360°)6.9 mphMostly Cloudy
6:30 PM84.2 °F77.0 °F79 %29.77 in6.2 miNNW (330°)5.8 mphMostly Cloudy
7:00 PM82.4 °F77.0 °F84 %29.77 in6.2 miNorth (350°)6.9 mphMostly Cloudy
7:30 PM82.4 °F77.0 °F84 %29.77 in6.2 miNW (320°)5.8 mphMostly Cloudy
8:00 PM82.0 °F77.0 °F80 %29.81 in9.0 miWNW (290°)4.6 mphPartly Cloudy
8:00 PM82.4 °F77.0 °F84 %29.80 in6.2 miWNW (290°)4.6 mphMostly Cloudy
8:30 PM82.4 °F77.0 °F84 %29.80 in6.2 miSW (230°)2.3 mphMostly Cloudy
9:00 PM80.6 °F75.2 °F84 %29.80 in6.2 miSSW (210°)3.5 mphMostly Cloudy
9:30 PM78.8 °F75.2 °F89 %29.83 in6.2 miSSW (200°)4.6 mphMostly Cloudy
10:00 PM78.8 °F75.2 °F89 %29.80 in6.2 miSSW (210°)4.6 mphMostly Cloudy
10:30 PM78.8 °F77.0 °F94 %29.80 in6.2 miWSW (250°)6.9 mphRainLight Rain
11:00 PM78.0 °F77.0 °F97 %29.82 in4.0 miNNE (20°)3.5 mphRain-ThunderstormThunderstorms and Rain
11:00 PM78.8 °F77.0 °F94 %29.80 in3.7 miNNE (20°)3.5 mphRain-ThunderstormLight Thunderstorms and Rain
11:30 PM78.8 °F77.0 °F94 %29.80 in6.2 miSE (140°)2.3 mphThunderstormThunderstorm
Hourly data recorded from WBGG, located miles away from Kuching, Malaysia







STORIES FROM OUR PARTNERS